TimeCST,TemperatureF,Dew PointF,Humidity,Sea Level PressureIn,VisibilityMPH,Wind Direction,Wind SpeedMPH,Gust SpeedMPH,PrecipitationIn,Events,Conditions,WindDirDegrees,DateUTC
12:56 AM,45.0,42.1,90,30.13,10.0,Calm,Calm,-,N/A,,Clear,0,2012-11-20 06:56:00
1:56 AM,42.1,39.9,92,30.12,10.0,Calm,Calm,-,N/A,,Clear,0,2012-11-20 07:56:00
2:56 AM,42.1,39.9,92,30.12,10.0,NW,3.5,-,N/A,,Clear,310,2012-11-20 08:56:00
3:56 AM,43.0,39.9,89,30.12,10.0,Calm,Calm,-,N/A,,Clear,0,2012-11-20 09:56:00
4:56 AM,42.1,39.9,92,30.12,10.0,Calm,Calm,-,N/A,,Clear,0,2012-11-20 10:56:00
5:56 AM,42.1,39.9,92,30.14,10.0,WNW,3.5,-,N/A,,Clear,290,2012-11-20 11:56:00
6:56 AM,45.0,43.0,93,30.15,10.0,Calm,Calm,-,N/A,,Clear,0,2012-11-20 12:56:00
7:56 AM,54.0,48.9,83,30.16,10.0,Calm,Calm,-,N/A,,Clear,0,2012-11-20 13:56:00
8:56 AM,57.9,48.9,72,30.18,10.0,NW,3.5,-,N/A,,Clear,320,2012-11-20 14:56:00
9:56 AM,64.9,51.1,61,30.15,10.0,NNE,4.6,-,N/A,,Clear,30,2012-11-20 15:56:00
10:56 AM,69.1,52.0,54,30.13,10.0,Variable,5.8,-,N/A,,Clear,0,2012-11-20 16:56:00
11:56 AM,68.0,51.1,55,30.10,10.0,NNE,6.9,-,N/A,,Scattered Clouds,20,2012-11-20 17:56:00
12:56 PM,66.9,50.0,54,30.08,10.0,North,9.2,-,N/A,,Partly Cloudy,10,2012-11-20 18:56:00
1:56 PM,66.9,51.1,57,30.07,10.0,North,8.1,-,N/A,,Scattered Clouds,350,2012-11-20 19:56:00
2:56 PM,66.9,50.0,54,30.07,10.0,North,8.1,-,N/A,,Mostly Cloudy,350,2012-11-20 20:56:00
3:56 PM,64.9,51.1,61,30.06,10.0,North,6.9,-,N/A,,Mostly Cloudy,10,2012-11-20 21:56:00
4:56 PM,62.1,51.1,67,30.07,10.0,NNW,5.8,-,N/A,,Overcast,340,2012-11-20 22:56:00
5:56 PM,57.9,48.9,72,30.09,10.0,NW,4.6,-,N/A,,Unknown,320,2012-11-20 23:56:00
6:56 PM,57.0,51.1,81,30.11,10.0,Calm,Calm,-,N/A,,Mostly Cloudy,0,2012-11-21 00:56:00
7:56 PM,53.1,50.0,89,30.10,10.0,WNW,3.5,-,N/A,,Mostly Cloudy,300,2012-11-21 01:56:00
8:56 PM,51.1,48.0,89,30.11,10.0,NW,4.6,-,N/A,,Mostly Cloudy,310,2012-11-21 02:56:00
9:56 PM,52.0,48.9,89,30.11,10.0,NW,3.5,-,N/A,,Mostly Cloudy,310,2012-11-21 03:56:00
10:56 PM,50.0,48.0,93,30.11,10.0,WNW,3.5,-,N/A,,Clear,290,2012-11-21 04:56:00
11:56 PM,46.9,45.0,93,30.10,10.0,NW,3.5,-,N/A,,Clear,320,2012-11-21 05:56:00